USA 97 1 22915U 93074A 21060.27898895 -.00000199 00000-0 00000-0 0 9997 2 22915 12.0187 28.1978 0012037 335.4322 24.5583 0.98535168 5838 IABS R/B 1 22916U 93074B 21059.70099428 -.00000298 00000-0 00000-0 0 9999 2 22916 15.0566 357.4614 0064726 50.3399 310.2466 0.99972394 6560